Tyler, TX

12:57 AM CST on February 18, 2018 (GMT -0600)
Tyler Pounds

Weather History for KTYR - April, 2014

Change the Weather History Date:

Thursday, April 10, 2014

  Actual Average Record
Temperature  
Mean Temperature 69 °F 63 °F  
Max Temperature 83 °F 73 °F 94 °F (1962)
Min Temperature 55 °F 53 °F 29 °F (1973)
Degree Days  
Heating Degree Days 0 4  
Month to date heating degree days 55 52  
Since 1 July heating degree days 2468 2217  
Cooling Degree Days 4 2  
Month to date cooling degree days 33 15  
Year to date cooling degree days 49 48  
Growing Degree Days 18 (Base 50)    
Moisture  
Dew Point 51 °F    
Average Humidity 54    
Maximum Humidity 73    
Minimum Humidity 34    
Precipitation  
Precipitation 0.00 in 0.08 in 1.97 in (1935)
Month to date precipitation 2.13 0.96  
Year to date precipitation 8.43 11.95  
Snow  
Snow 0.00 in - - ()
Month to date snowfall 0.0  
Since 1 July snowfall 1.2  
Snow Depth 0.00 in    
Sea Level Pressure  
Sea Level Pressure 29.99 in    
Wind  
Wind Speed 16 mph (South)    
Max Wind Speed 28 mph    
Max Gust Speed 36 mph    
Visibility 10 miles    
Events      
T = Trace of Precipitation, MM = Missing Value Source: NWS Daily Summary

Daily Weather History Graph

Daily Weather History Graph

Search for Another Location

Airport or City:

Trip Planner

Search our weather history database for the weather conditions in past years. The results will help you decide how hot, cold, wet, or windy it might be!

Date:

Astronomy

Apr. 10, 2014 Rise Set
Actual Time 6:58 AM CDT 7:47 PM CDT
Civil Twilight 6:33 AM CDT 8:12 PM CDT
Nautical Twilight 6:03 AM CDT 8:42 PM CDT
Astronomical Twilight 5:33 AM CDT 9:12 PM CDT
Moon 3:46 PM CDT (4/10) 4:06 AM CDT (4/10)
Length of Visible Light 13h 39m
Length of Day
12h 49m
Waxing Gibbous, 80% of the Moon is Illuminated
Apr 10
Waxing Gibbous
Apr 15
Full
Apr 22
Last Quarter
Apr 29
New
May 6
First Quarter

Hourly Weather History & Observations

Time (CDT) Temp. Dew Point Humidity Pressure Visibility Wind Dir Wind Speed Gust Speed Precip Events Conditions
12:53 AM 62.1 °F 46.0 °F 56% 30.06 in 10.0 mi South 15.0 mph - N/A   Clear
1:53 AM 62.1 °F 46.9 °F 58% 30.05 in 10.0 mi South 15.0 mph - N/A   Clear
2:53 AM 60.1 °F 46.9 °F 62% 30.04 in 10.0 mi South 13.8 mph - N/A   Clear
3:53 AM 59.0 °F 45.0 °F 60% 30.03 in 10.0 mi South 12.7 mph - N/A   Clear
4:53 AM 57.0 °F 45.0 °F 64% 30.01 in 10.0 mi South 12.7 mph - N/A   Clear
5:53 AM 55.9 °F 46.0 °F 69% 30.02 in 10.0 mi South 11.5 mph - N/A   Clear
6:53 AM 55.0 °F 46.9 °F 74% 30.04 in 10.0 mi South 10.4 mph - N/A   Clear
7:53 AM 57.0 °F 48.0 °F 72% 30.04 in 10.0 mi South 12.7 mph - N/A   Clear
9:53 AM 66.0 °F 55.0 °F 68% 30.05 in 10.0 mi SSW 12.7 mph 20.7 mph N/A   Clear
10:53 AM 71.1 °F 55.0 °F 57% 30.05 in 10.0 mi SSW 19.6 mph 28.8 mph N/A   Clear
11:53 AM 75.0 °F 54.0 °F 48% 30.04 in 10.0 mi South 23.0 mph 27.6 mph N/A   Clear
12:53 PM 78.1 °F 54.0 °F 43% 30.01 in 10.0 mi South 23.0 mph 29.9 mph N/A   Clear
1:53 PM 81.0 °F 50.0 °F 34% 29.99 in 10.0 mi SSW 20.7 mph 31.1 mph N/A   Clear
2:53 PM 82.0 °F 51.1 °F 34% 29.96 in 10.0 mi South 23.0 mph 32.2 mph N/A   Clear
3:53 PM 81.0 °F 50.0 °F 34% 29.93 in 10.0 mi South 20.7 mph 28.8 mph N/A   Clear
4:53 PM 82.0 °F 51.1 °F 34% 29.91 in 10.0 mi South 17.3 mph 27.6 mph N/A   Clear
5:53 PM 81.0 °F 52.0 °F 36% 29.91 in 10.0 mi South 16.1 mph 23.0 mph N/A   Clear
6:53 PM 78.1 °F 53.1 °F 42% 29.90 in 10.0 mi South 12.7 mph 23.0 mph N/A   Clear
7:53 PM 75.0 °F 52.0 °F 44% 29.93 in 10.0 mi South 11.5 mph - N/A   Partly Cloudy
8:53 PM 73.0 °F 52.0 °F 48% 29.94 in 10.0 mi South 12.7 mph - N/A   Clear
9:53 PM 71.1 °F 55.9 °F 59% 29.96 in 10.0 mi South 17.3 mph 21.9 mph N/A   Clear
10:53 PM 69.1 °F 57.0 °F 65% 29.96 in 10.0 mi South 12.7 mph - N/A   Clear
11:53 PM 66.9 °F 57.0 °F 70% 29.96 in 10.0 mi South 16.1 mph 21.9 mph N/A   Clear